Year,Month,Day,Hour,Minute,Value (Times are PST for temperature in C)
2010,02,24,00,00,4.80
2010,02,24,00,01,4.80
2010,02,24,00,02,4.80
2010,02,24,00,03,4.80
2010,02,24,00,04,4.80
2010,02,24,00,05,4.80
2010,02,24,00,06,4.80
2010,02,24,00,07,4.80
2010,02,24,00,08,4.80
2010,02,24,00,09,4.80
2010,02,24,00,10,4.80
2010,02,24,00,11,4.80
2010,02,24,00,12,4.80
2010,02,24,00,13,4.80
2010,02,24,00,14,4.80
2010,02,24,00,15,4.80
2010,02,24,00,16,4.80
2010,02,24,00,17,4.80
2010,02,24,00,18,4.80
2010,02,24,00,19,4.80
2010,02,24,00,20,4.80
2010,02,24,00,21,4.80
2010,02,24,00,22,4.80
2010,02,24,00,23,4.80
2010,02,24,00,24,4.80
2010,02,24,00,25,4.80
2010,02,24,00,26,4.80
2010,02,24,00,27,4.80
2010,02,24,00,28,4.80
2010,02,24,00,29,4.80
2010,02,24,00,30,4.80
2010,02,24,00,31,4.80
2010,02,24,00,32,4.80
2010,02,24,00,33,4.80
2010,02,24,00,34,4.80
2010,02,24,00,35,4.80
2010,02,24,00,36,4.80
2010,02,24,00,37,4.90
2010,02,24,00,38,4.90
2010,02,24,00,39,4.80
2010,02,24,00,40,4.80
2010,02,24,00,41,4.90
2010,02,24,00,42,4.90
2010,02,24,00,43,4.90
2010,02,24,00,44,4.90
2010,02,24,00,45,4.90
2010,02,24,00,46,4.90
2010,02,24,00,47,4.90
2010,02,24,00,48,4.90
2010,02,24,00,49,4.90
2010,02,24,00,50,4.90
2010,02,24,00,51,4.90
2010,02,24,00,52,4.90
2010,02,24,00,53,4.90
2010,02,24,00,54,4.90
2010,02,24,00,55,4.90
2010,02,24,00,56,4.90
2010,02,24,00,57,4.90
2010,02,24,00,58,4.90
2010,02,24,00,59,4.90
2010,02,24,01,00,4.90
2010,02,24,01,01,4.90
2010,02,24,01,02,4.90
2010,02,24,01,03,4.90
2010,02,24,01,04,4.90
2010,02,24,01,05,4.90
2010,02,24,01,06,4.90
2010,02,24,01,07,4.90
2010,02,24,01,08,4.90
2010,02,24,01,09,4.90
2010,02,24,01,10,4.90
2010,02,24,01,11,4.90
2010,02,24,01,12,4.90
2010,02,24,01,13,4.90
2010,02,24,01,14,4.90
2010,02,24,01,15,4.90
2010,02,24,01,16,4.90
2010,02,24,01,17,4.90
2010,02,24,01,18,4.90
2010,02,24,01,19,4.90
2010,02,24,01,20,4.90
2010,02,24,01,21,4.90
2010,02,24,01,22,4.90
2010,02,24,01,23,4.90
2010,02,24,01,24,4.90
2010,02,24,01,25,4.90
2010,02,24,01,26,4.90
2010,02,24,01,27,4.90
2010,02,24,01,28,4.90
2010,02,24,01,29,4.90
2010,02,24,01,30,4.90
2010,02,24,01,31,4.90
2010,02,24,01,32,4.90
2010,02,24,01,33,4.90
2010,02,24,01,34,4.90
2010,02,24,01,35,4.90
2010,02,24,01,36,4.90
2010,02,24,01,37,4.90
2010,02,24,01,38,4.90
2010,02,24,01,39,4.90
2010,02,24,01,40,4.90
2010,02,24,01,41,4.90
2010,02,24,01,42,4.90
2010,02,24,01,43,4.90
2010,02,24,01,44,4.90
2010,02,24,01,45,4.90
2010,02,24,01,46,4.90
2010,02,24,01,47,4.90
2010,02,24,01,48,4.90
2010,02,24,01,49,4.90
2010,02,24,01,50,4.90
2010,02,24,01,51,5.00
2010,02,24,01,52,4.90
2010,02,24,01,53,4.90
2010,02,24,01,54,5.00
2010,02,24,01,55,5.00
2010,02,24,01,56,5.00
2010,02,24,01,57,5.00
2010,02,24,01,58,5.00
2010,02,24,01,59,5.00
2010,02,24,02,00,5.00
2010,02,24,02,01,5.00
2010,02,24,02,02,5.00
2010,02,24,02,03,5.00
2010,02,24,02,04,5.00
2010,02,24,02,05,5.00
2010,02,24,02,06,5.00
2010,02,24,02,07,5.00
2010,02,24,02,08,5.00
2010,02,24,02,09,5.00
2010,02,24,02,10,5.00
2010,02,24,02,11,5.00
2010,02,24,02,12,5.00
2010,02,24,02,13,5.00
2010,02,24,02,14,5.00
2010,02,24,02,15,5.00
2010,02,24,02,16,5.00
2010,02,24,02,17,5.00
2010,02,24,02,18,5.10
2010,02,24,02,19,5.10
2010,02,24,02,20,5.10
2010,02,24,02,21,5.10
2010,02,24,02,22,5.10
2010,02,24,02,23,5.10
2010,02,24,02,24,5.10
2010,02,24,02,25,5.10
2010,02,24,02,26,5.10
2010,02,24,02,27,5.10
2010,02,24,02,28,5.10
2010,02,24,02,29,5.10
2010,02,24,02,30,5.10
2010,02,24,02,31,5.10
2010,02,24,02,32,5.10
2010,02,24,02,33,5.10
2010,02,24,02,34,5.10
2010,02,24,02,35,5.10
2010,02,24,02,36,5.10
2010,02,24,02,37,5.10
2010,02,24,02,38,5.10
2010,02,24,02,39,5.10
2010,02,24,02,40,5.10
2010,02,24,02,41,5.10
2010,02,24,02,42,5.10
2010,02,24,02,43,5.10
2010,02,24,02,44,5.10
2010,02,24,02,45,5.10
2010,02,24,02,46,5.10
2010,02,24,02,47,5.10
2010,02,24,02,48,5.10
2010,02,24,02,49,5.10
2010,02,24,02,50,5.10
2010,02,24,02,51,5.10
2010,02,24,02,52,5.10
2010,02,24,02,53,5.10
2010,02,24,02,54,5.10
2010,02,24,02,55,5.10
2010,02,24,02,56,5.10
2010,02,24,02,57,5.10
2010,02,24,02,58,5.10
2010,02,24,02,59,5.10
2010,02,24,03,00,5.10
2010,02,24,03,01,5.10
2010,02,24,03,02,5.10
2010,02,24,03,03,5.10
2010,02,24,03,04,5.10
2010,02,24,03,05,5.10
2010,02,24,03,06,5.10
2010,02,24,03,07,5.10
2010,02,24,03,08,5.10
2010,02,24,03,09,5.10
2010,02,24,03,10,5.10
2010,02,24,03,11,5.10
2010,02,24,03,12,5.10
2010,02,24,03,13,5.10
2010,02,24,03,14,5.10
2010,02,24,03,15,5.10
2010,02,24,03,16,5.10
2010,02,24,03,17,5.10
2010,02,24,03,18,5.10
2010,02,24,03,19,5.10
2010,02,24,03,20,5.10
2010,02,24,03,21,5.10
2010,02,24,03,22,5.10
2010,02,24,03,23,5.10
2010,02,24,03,24,5.10
2010,02,24,03,25,5.10
2010,02,24,03,26,5.10
2010,02,24,03,27,5.10
2010,02,24,03,28,5.10
2010,02,24,03,29,5.10
2010,02,24,03,30,5.10
2010,02,24,03,31,5.00
2010,02,24,03,32,5.00
2010,02,24,03,33,5.00
2010,02,24,03,34,5.00
2010,02,24,03,35,5.00
2010,02,24,03,36,4.90
2010,02,24,03,37,4.90
2010,02,24,03,38,4.90
2010,02,24,03,39,4.90
2010,02,24,03,40,4.90
2010,02,24,03,41,4.90
2010,02,24,03,42,4.90
2010,02,24,03,43,4.90
2010,02,24,03,44,4.90
2010,02,24,03,45,4.90
2010,02,24,03,46,4.90
2010,02,24,03,47,4.90
2010,02,24,03,48,4.90
2010,02,24,03,49,4.90
2010,02,24,03,50,4.90
2010,02,24,03,51,4.80
2010,02,24,03,52,4.80
2010,02,24,03,53,4.80
2010,02,24,03,54,4.80
2010,02,24,03,55,4.80
2010,02,24,03,56,4.80
2010,02,24,03,57,4.80
2010,02,24,03,58,4.80
2010,02,24,03,59,4.80
2010,02,24,04,00,4.80
2010,02,24,04,01,4.80
2010,02,24,04,02,4.80
2010,02,24,04,03,4.80
2010,02,24,04,04,4.80
2010,02,24,04,05,4.80
2010,02,24,04,06,4.80
2010,02,24,04,07,4.80
2010,02,24,04,08,4.80
2010,02,24,04,09,4.80
2010,02,24,04,10,4.80
2010,02,24,04,11,4.80
2010,02,24,04,12,4.80
2010,02,24,04,13,4.80
2010,02,24,04,14,4.80
2010,02,24,04,15,4.80
2010,02,24,04,16,4.80
2010,02,24,04,17,4.80
2010,02,24,04,18,4.80
2010,02,24,04,19,4.80
2010,02,24,04,20,4.80
2010,02,24,04,21,4.80
2010,02,24,04,22,4.80
2010,02,24,04,23,4.80
2010,02,24,04,24,4.80
2010,02,24,04,25,4.80
2010,02,24,04,26,4.80
2010,02,24,04,27,4.80
2010,02,24,04,28,4.80
2010,02,24,04,29,4.80
2010,02,24,04,30,4.80
2010,02,24,04,31,4.80
2010,02,24,04,32,4.80
2010,02,24,04,33,4.80
2010,02,24,04,34,4.80
2010,02,24,04,35,4.80
2010,02,24,04,36,4.80
2010,02,24,04,37,4.80
2010,02,24,04,38,4.80
2010,02,24,04,39,4.80
2010,02,24,04,40,4.80
2010,02,24,04,41,4.80
2010,02,24,04,42,4.80
2010,02,24,04,43,4.80
2010,02,24,04,44,4.80
2010,02,24,04,45,4.80
2010,02,24,04,46,4.80
2010,02,24,04,47,4.80
2010,02,24,04,48,4.80
2010,02,24,04,49,4.80
2010,02,24,04,50,4.80
2010,02,24,04,51,4.80
2010,02,24,04,52,4.80
2010,02,24,04,53,4.80
2010,02,24,04,54,4.70
2010,02,24,04,55,4.70
2010,02,24,04,56,4.70
2010,02,24,04,57,4.70
2010,02,24,04,58,4.70
2010,02,24,04,59,4.70
2010,02,24,05,00,4.70
2010,02,24,05,01,4.70
2010,02,24,05,02,4.70
2010,02,24,05,03,4.70
2010,02,24,05,04,4.70
2010,02,24,05,05,4.70
2010,02,24,05,06,4.70
2010,02,24,05,07,4.70
2010,02,24,05,08,4.70
2010,02,24,05,09,4.70
2010,02,24,05,10,4.70
2010,02,24,05,11,4.70
2010,02,24,05,12,4.70
2010,02,24,05,13,4.70
2010,02,24,05,14,4.70
2010,02,24,05,15,4.70
2010,02,24,05,16,4.70
2010,02,24,05,17,4.70
2010,02,24,05,18,4.70
2010,02,24,05,19,4.70
2010,02,24,05,20,4.70
2010,02,24,05,21,4.70
2010,02,24,05,22,4.70
2010,02,24,05,23,4.70
2010,02,24,05,24,4.70
2010,02,24,05,25,4.70
2010,02,24,05,26,4.70
2010,02,24,05,27,4.70
2010,02,24,05,28,4.70
2010,02,24,05,29,4.70
2010,02,24,05,30,4.60
2010,02,24,05,31,4.70
2010,02,24,05,32,4.70
2010,02,24,05,33,4.70
2010,02,24,05,34,4.70
2010,02,24,05,35,4.70
2010,02,24,05,36,4.70
2010,02,24,05,37,4.70
2010,02,24,05,38,4.70
2010,02,24,05,39,4.70
2010,02,24,05,40,4.70
2010,02,24,05,41,4.70
2010,02,24,05,42,4.70
2010,02,24,05,43,4.70
2010,02,24,05,44,4.70
2010,02,24,05,45,4.60
2010,02,24,05,46,4.60
2010,02,24,05,47,4.70
2010,02,24,05,48,4.60
2010,02,24,05,49,4.60
2010,02,24,05,50,4.60
2010,02,24,05,51,4.60
2010,02,24,05,52,4.60
2010,02,24,05,53,4.60
2010,02,24,05,54,4.60
2010,02,24,05,55,4.60
2010,02,24,05,56,4.60
2010,02,24,05,57,4.60
2010,02,24,05,58,4.60
2010,02,24,05,59,4.60
2010,02,24,06,00,4.60
2010,02,24,06,01,4.60
2010,02,24,06,02,4.60
2010,02,24,06,03,4.60
2010,02,24,06,04,4.60
2010,02,24,06,05,4.60
2010,02,24,06,06,4.60
2010,02,24,06,07,4.60
2010,02,24,06,08,4.60
2010,02,24,06,09,4.60
2010,02,24,06,10,4.60
2010,02,24,06,11,4.60
2010,02,24,06,12,4.60
2010,02,24,06,13,4.60
2010,02,24,06,14,4.60
2010,02,24,06,15,4.60
2010,02,24,06,16,4.60
2010,02,24,06,17,4.60
2010,02,24,06,18,4.60
2010,02,24,06,19,4.60
2010,02,24,06,20,4.60
2010,02,24,06,21,4.60
2010,02,24,06,22,4.60
2010,02,24,06,23,4.60
2010,02,24,06,24,4.60
2010,02,24,06,25,4.60
2010,02,24,06,26,4.60
2010,02,24,06,27,4.60
2010,02,24,06,28,4.60
2010,02,24,06,29,4.60
2010,02,24,06,30,4.60
2010,02,24,06,31,4.60
2010,02,24,06,32,4.60
2010,02,24,06,33,4.60
2010,02,24,06,34,4.60
2010,02,24,06,35,4.60
2010,02,24,06,36,4.60
2010,02,24,06,37,4.60
2010,02,24,06,38,4.60
2010,02,24,06,39,4.60
2010,02,24,06,40,4.60
2010,02,24,06,41,4.60
2010,02,24,06,42,4.50
2010,02,24,06,43,4.50
2010,02,24,06,44,4.50
2010,02,24,06,45,4.50
2010,02,24,06,46,4.50
2010,02,24,06,47,4.50
2010,02,24,06,48,4.50
2010,02,24,06,49,4.50
2010,02,24,06,50,4.50
2010,02,24,06,51,4.50
2010,02,24,06,52,4.50
2010,02,24,06,53,4.50
2010,02,24,06,54,4.50
2010,02,24,06,55,4.50
2010,02,24,06,56,4.50
2010,02,24,06,57,4.50
2010,02,24,06,58,4.50
2010,02,24,06,59,4.50
2010,02,24,07,00,4.50
2010,02,24,07,01,4.50
2010,02,24,07,02,4.50
2010,02,24,07,03,4.50
2010,02,24,07,04,4.50
2010,02,24,07,05,4.50
2010,02,24,07,06,4.50
2010,02,24,07,07,4.50
2010,02,24,07,08,4.50
2010,02,24,07,09,4.50
2010,02,24,07,10,4.50
2010,02,24,07,11,4.50
2010,02,24,07,12,4.50
2010,02,24,07,13,4.50
2010,02,24,07,14,4.50
2010,02,24,07,15,4.50
2010,02,24,07,16,4.50
2010,02,24,07,17,4.50
2010,02,24,07,18,4.50
2010,02,24,07,19,4.50
2010,02,24,07,20,4.50
2010,02,24,07,21,4.50
2010,02,24,07,22,4.50
2010,02,24,07,23,4.50
2010,02,24,07,24,4.50
2010,02,24,07,25,4.50
2010,02,24,07,26,4.50
2010,02,24,07,27,4.50
2010,02,24,07,28,4.60
2010,02,24,07,29,4.50
2010,02,24,07,30,4.50
2010,02,24,07,31,4.50
2010,02,24,07,32,4.60
2010,02,24,07,33,4.60
2010,02,24,07,34,4.60
2010,02,24,07,35,4.60
2010,02,24,07,36,4.60
2010,02,24,07,37,4.60
2010,02,24,07,38,4.60
2010,02,24,07,39,4.60
2010,02,24,07,40,4.60
2010,02,24,07,41,4.60
2010,02,24,07,42,4.60
2010,02,24,07,43,4.60
2010,02,24,07,44,4.60
2010,02,24,07,45,4.60
2010,02,24,07,46,4.60
2010,02,24,07,47,4.60
2010,02,24,07,48,4.60
2010,02,24,07,49,4.60
2010,02,24,07,50,4.60
2010,02,24,07,51,4.60
2010,02,24,07,52,4.60
2010,02,24,07,53,4.60
2010,02,24,07,54,4.60
2010,02,24,07,55,4.60
2010,02,24,07,56,4.60
2010,02,24,07,57,4.60
2010,02,24,07,58,4.60
2010,02,24,07,59,4.60
2010,02,24,08,00,4.60
2010,02,24,08,01,4.60
2010,02,24,08,02,4.60
2010,02,24,08,03,4.60
2010,02,24,08,04,4.60
2010,02,24,08,05,4.60
2010,02,24,08,06,4.60
2010,02,24,08,07,4.70
2010,02,24,08,08,4.70
2010,02,24,08,09,4.70
2010,02,24,08,10,4.70
2010,02,24,08,11,4.70
2010,02,24,08,12,4.70
2010,02,24,08,13,4.70
2010,02,24,08,14,4.70
2010,02,24,08,15,4.70
2010,02,24,08,16,4.70
2010,02,24,08,17,4.70
2010,02,24,08,18,4.80
2010,02,24,08,19,4.80
2010,02,24,08,20,4.80
2010,02,24,08,21,4.80
2010,02,24,08,22,4.80
2010,02,24,08,23,4.80
2010,02,24,08,24,4.80
2010,02,24,08,25,4.80
2010,02,24,08,26,4.80
2010,02,24,08,27,4.80
2010,02,24,08,28,4.80
2010,02,24,08,29,4.80
2010,02,24,08,30,4.80
2010,02,24,08,31,4.80
2010,02,24,08,32,4.80
2010,02,24,08,33,4.80
2010,02,24,08,34,4.90
2010,02,24,08,35,4.90
2010,02,24,08,36,4.90
2010,02,24,08,37,4.90
2010,02,24,08,38,4.90
2010,02,24,08,39,4.90
2010,02,24,08,40,4.90
2010,02,24,08,41,4.90
2010,02,24,08,42,4.90
2010,02,24,08,43,4.90
2010,02,24,08,44,4.90
2010,02,24,08,45,4.90
2010,02,24,08,46,4.90
2010,02,24,08,47,4.90
2010,02,24,08,48,4.90
2010,02,24,08,49,4.90
2010,02,24,08,50,4.90
2010,02,24,08,51,4.90
2010,02,24,08,52,5.00
2010,02,24,08,53,4.90
2010,02,24,08,54,5.00
2010,02,24,08,55,5.00
2010,02,24,08,56,5.00
2010,02,24,08,57,5.00
2010,02,24,08,58,5.00
2010,02,24,08,59,5.00
2010,02,24,09,00,4.90
2010,02,24,09,01,4.90
2010,02,24,09,02,4.90
2010,02,24,09,03,5.00
2010,02,24,09,04,5.00
2010,02,24,09,05,5.00
2010,02,24,09,06,5.00
2010,02,24,09,07,5.00
2010,02,24,09,08,5.00
2010,02,24,09,09,5.00
2010,02,24,09,10,5.00
2010,02,24,09,11,5.00
2010,02,24,09,12,5.00
2010,02,24,09,13,5.00
2010,02,24,09,14,5.00
2010,02,24,09,15,5.00
2010,02,24,09,16,5.00
2010,02,24,09,17,5.00
2010,02,24,09,18,5.10
2010,02,24,09,19,5.00
2010,02,24,09,20,5.10
2010,02,24,09,21,5.10
2010,02,24,09,22,5.10
2010,02,24,09,23,5.10
2010,02,24,09,24,5.10
2010,02,24,09,25,5.10
2010,02,24,09,26,5.10
2010,02,24,09,27,5.10
2010,02,24,09,28,5.10
2010,02,24,09,29,5.10
2010,02,24,09,30,5.10
2010,02,24,09,31,5.10
2010,02,24,09,32,5.10
2010,02,24,09,33,5.10
2010,02,24,09,34,5.10
2010,02,24,09,35,5.10
2010,02,24,09,36,5.10
2010,02,24,09,37,5.10
2010,02,24,09,38,5.10
2010,02,24,09,39,5.10
2010,02,24,09,40,5.10
2010,02,24,09,41,5.10
2010,02,24,09,42,5.10
2010,02,24,09,43,5.10
2010,02,24,09,44,5.10
2010,02,24,09,45,5.10
2010,02,24,09,46,5.10
2010,02,24,09,47,5.10
2010,02,24,09,48,5.10
2010,02,24,09,49,5.10
2010,02,24,09,50,5.10
2010,02,24,09,51,5.20
2010,02,24,09,52,5.20
2010,02,24,09,53,5.20
2010,02,24,09,54,5.20
2010,02,24,09,55,5.20
2010,02,24,09,56,5.20
2010,02,24,09,57,5.20
2010,02,24,09,58,5.20
2010,02,24,09,59,5.20
2010,02,24,10,00,5.20
2010,02,24,10,01,5.20
2010,02,24,10,02,5.20
2010,02,24,10,03,5.20
2010,02,24,10,04,5.30
2010,02,24,10,05,5.30
2010,02,24,10,06,5.30
2010,02,24,10,07,5.30
2010,02,24,10,08,5.30
2010,02,24,10,09,5.30
2010,02,24,10,10,5.30
2010,02,24,10,11,5.30
2010,02,24,10,12,5.30
2010,02,24,10,13,5.40
2010,02,24,10,14,5.40
2010,02,24,10,15,5.40
2010,02,24,10,16,5.40
2010,02,24,10,17,5.40
2010,02,24,10,18,5.40
2010,02,24,10,19,5.40
2010,02,24,10,20,5.40
2010,02,24,10,21,5.40
2010,02,24,10,22,5.40
2010,02,24,10,23,5.50
2010,02,24,10,24,5.50
2010,02,24,10,25,5.50
2010,02,24,10,26,5.50
2010,02,24,10,27,5.50
2010,02,24,10,28,5.50
2010,02,24,10,29,5.50
2010,02,24,10,30,5.50
2010,02,24,10,31,5.50
2010,02,24,10,32,5.50
2010,02,24,10,33,5.60
2010,02,24,10,34,5.60
2010,02,24,10,35,5.60
2010,02,24,10,36,5.60
2010,02,24,10,37,5.60
2010,02,24,10,38,5.60
2010,02,24,10,39,5.60
2010,02,24,10,40,5.60
2010,02,24,10,41,5.60
2010,02,24,10,42,5.60
2010,02,24,10,43,5.60
2010,02,24,10,44,5.60
2010,02,24,10,45,5.60
2010,02,24,10,46,5.60
2010,02,24,10,47,5.60
2010,02,24,10,48,5.60
2010,02,24,10,49,5.60
2010,02,24,10,50,5.60
2010,02,24,10,51,5.60
2010,02,24,10,52,5.60
2010,02,24,10,53,5.60
2010,02,24,10,54,5.60
2010,02,24,10,55,5.60
2010,02,24,10,56,5.60
2010,02,24,10,57,5.60
2010,02,24,10,58,5.60
2010,02,24,10,59,5.60
2010,02,24,11,00,5.60
2010,02,24,11,01,5.70
2010,02,24,11,02,5.70
2010,02,24,11,03,5.70
2010,02,24,11,04,5.70
2010,02,24,11,05,5.70
2010,02,24,11,06,5.70
2010,02,24,11,07,5.70
2010,02,24,11,08,5.70
2010,02,24,11,09,5.70
2010,02,24,11,10,5.70
2010,02,24,11,11,5.70
2010,02,24,11,12,5.70
2010,02,24,11,13,5.70
2010,02,24,11,14,5.70
2010,02,24,11,15,5.70
2010,02,24,11,16,5.80
2010,02,24,11,17,5.80
2010,02,24,11,18,5.70
2010,02,24,11,19,5.70
2010,02,24,11,20,5.70
2010,02,24,11,21,5.70
2010,02,24,11,22,5.70
2010,02,24,11,23,5.70
2010,02,24,11,24,5.70
2010,02,24,11,25,5.70
2010,02,24,11,26,5.70
2010,02,24,11,27,5.70
2010,02,24,11,28,5.70
2010,02,24,11,29,5.70
2010,02,24,11,30,5.70
2010,02,24,11,31,5.70
2010,02,24,11,32,5.70
2010,02,24,11,33,5.70
2010,02,24,11,34,5.70
2010,02,24,11,35,5.70
2010,02,24,11,36,5.70
2010,02,24,11,37,5.70
2010,02,24,11,38,5.70
2010,02,24,11,39,5.70
2010,02,24,11,40,5.70
2010,02,24,11,41,5.70
2010,02,24,11,42,5.70
2010,02,24,11,43,5.70
2010,02,24,11,44,5.70
2010,02,24,11,45,5.70
2010,02,24,11,46,5.70
2010,02,24,11,47,5.70
2010,02,24,11,48,5.70
2010,02,24,11,49,5.70
2010,02,24,11,50,5.70
2010,02,24,11,51,5.70
2010,02,24,11,52,5.70
2010,02,24,11,53,5.70
2010,02,24,11,54,5.70
2010,02,24,11,55,5.70
2010,02,24,11,56,5.70
2010,02,24,11,57,5.70
2010,02,24,11,58,5.70
2010,02,24,11,59,5.70
2010,02,24,12,00,5.70
2010,02,24,12,01,5.70
2010,02,24,12,02,5.60
2010,02,24,12,03,5.60
2010,02,24,12,04,5.60
2010,02,24,12,05,5.60
2010,02,24,12,06,5.60
2010,02,24,12,07,5.60
2010,02,24,12,08,5.60
2010,02,24,12,09,5.60
2010,02,24,12,10,5.60
2010,02,24,12,11,5.60
2010,02,24,12,12,5.60
2010,02,24,12,13,5.60
2010,02,24,12,14,5.60
2010,02,24,12,15,5.70
2010,02,24,12,16,5.70
2010,02,24,12,17,5.70
2010,02,24,12,18,5.70
2010,02,24,12,19,5.70
2010,02,24,12,20,5.70
2010,02,24,12,21,5.70
2010,02,24,12,22,5.70
2010,02,24,12,23,5.70
2010,02,24,12,24,5.70
2010,02,24,12,25,5.70
2010,02,24,12,26,5.70
2010,02,24,12,27,5.70
2010,02,24,12,28,5.70
2010,02,24,12,29,5.70
2010,02,24,12,30,5.70
2010,02,24,12,31,5.70
2010,02,24,12,32,5.70
2010,02,24,12,33,5.60
2010,02,24,12,34,5.60
2010,02,24,12,35,5.60
2010,02,24,12,36,5.60
2010,02,24,12,37,5.60
2010,02,24,12,38,5.60
2010,02,24,12,39,5.60
2010,02,24,12,40,5.70
2010,02,24,12,41,5.70
2010,02,24,12,42,5.70
2010,02,24,12,43,5.70
2010,02,24,12,44,5.70
2010,02,24,12,45,5.70
2010,02,24,12,46,5.70
2010,02,24,12,47,5.70
2010,02,24,12,48,5.70
2010,02,24,12,49,5.70
2010,02,24,12,50,5.70
2010,02,24,12,51,5.70
2010,02,24,12,52,5.70
2010,02,24,12,53,5.70
2010,02,24,12,54,5.70
2010,02,24,12,55,5.70
2010,02,24,12,56,5.70
2010,02,24,12,57,5.70
2010,02,24,12,58,5.70
2010,02,24,12,59,5.70
2010,02,24,13,00,5.70
2010,02,24,13,01,5.70
2010,02,24,13,02,5.70
2010,02,24,13,03,5.70
2010,02,24,13,04,5.70
2010,02,24,13,05,5.70
2010,02,24,13,06,5.70
2010,02,24,13,07,5.70
2010,02,24,13,08,5.70
2010,02,24,13,09,5.70
2010,02,24,13,10,5.70
2010,02,24,13,11,5.70
2010,02,24,13,12,5.70
2010,02,24,13,13,5.70
2010,02,24,13,14,5.70
2010,02,24,13,15,5.70
2010,02,24,13,16,5.80
2010,02,24,13,17,5.80
2010,02,24,13,18,5.80
2010,02,24,13,19,5.80
2010,02,24,13,20,5.80
2010,02,24,13,21,5.80
2010,02,24,13,22,5.80
2010,02,24,13,23,5.90
2010,02,24,13,24,5.90
2010,02,24,13,25,5.90
2010,02,24,13,26,5.90
2010,02,24,13,27,5.90
2010,02,24,13,28,5.90
2010,02,24,13,29,5.90
2010,02,24,13,30,5.90
2010,02,24,13,31,5.90
2010,02,24,13,32,5.90
2010,02,24,13,33,5.90
2010,02,24,13,34,5.80
2010,02,24,13,35,5.80
2010,02,24,13,36,5.80
2010,02,24,13,37,5.80
2010,02,24,13,38,5.80
2010,02,24,13,39,5.80
2010,02,24,13,40,5.80
2010,02,24,13,41,5.80
2010,02,24,13,42,5.80
2010,02,24,13,43,5.80
2010,02,24,13,44,5.80
2010,02,24,13,45,5.80
2010,02,24,13,46,5.80
2010,02,24,13,47,5.80
2010,02,24,13,48,5.80
2010,02,24,13,49,5.80
2010,02,24,13,50,5.70
2010,02,24,13,51,5.70
2010,02,24,13,52,5.70
2010,02,24,13,53,5.70
2010,02,24,13,54,5.70
2010,02,24,13,55,5.70
2010,02,24,13,56,5.70
2010,02,24,13,57,5.70
2010,02,24,13,58,5.70
2010,02,24,13,59,5.70
2010,02,24,14,00,5.70
2010,02,24,14,01,5.70
2010,02,24,14,02,5.80
2010,02,24,14,03,5.80
2010,02,24,14,04,5.80
2010,02,24,14,05,5.80
2010,02,24,14,06,5.80
2010,02,24,14,07,5.70
2010,02,24,14,08,5.80
2010,02,24,14,09,5.80
2010,02,24,14,10,5.80
2010,02,24,14,11,5.80
2010,02,24,14,12,5.80
2010,02,24,14,13,5.80
2010,02,24,14,14,5.80
2010,02,24,14,15,5.80
2010,02,24,14,16,5.80
2010,02,24,14,17,5.80
2010,02,24,14,18,5.90
2010,02,24,14,19,5.90
2010,02,24,14,20,5.90
2010,02,24,14,21,5.90
2010,02,24,14,22,5.90
2010,02,24,14,23,5.90
2010,02,24,14,24,5.90
2010,02,24,14,25,5.90
2010,02,24,14,26,5.90
2010,02,24,14,27,5.90
2010,02,24,14,28,6.00
2010,02,24,14,29,6.00
2010,02,24,14,30,6.00
2010,02,24,14,31,6.10
2010,02,24,14,32,6.00
2010,02,24,14,33,6.00
2010,02,24,14,34,6.00
2010,02,24,14,35,6.00
2010,02,24,14,36,6.00
2010,02,24,14,37,6.00
2010,02,24,14,38,6.10
2010,02,24,14,39,6.10
2010,02,24,14,40,6.10
2010,02,24,14,41,6.10
2010,02,24,14,42,6.10
2010,02,24,14,43,6.10
2010,02,24,14,44,6.10
2010,02,24,14,45,6.10
2010,02,24,14,46,6.10
2010,02,24,14,47,6.10
2010,02,24,14,48,6.20
2010,02,24,14,49,6.20
2010,02,24,14,50,6.20
2010,02,24,14,51,6.20
2010,02,24,14,52,6.20
2010,02,24,14,53,6.20
2010,02,24,14,54,6.20
2010,02,24,14,55,6.20
2010,02,24,14,56,6.20
2010,02,24,14,57,6.20
2010,02,24,14,58,6.20
2010,02,24,14,59,6.20
2010,02,24,15,00,6.20
2010,02,24,15,01,6.20
2010,02,24,15,02,6.20
2010,02,24,15,03,6.20
2010,02,24,15,04,6.20
2010,02,24,15,05,6.20
2010,02,24,15,06,6.30
2010,02,24,15,07,6.30
2010,02,24,15,08,6.30
2010,02,24,15,09,6.30
2010,02,24,15,10,6.30
2010,02,24,15,11,6.30
2010,02,24,15,12,6.30
2010,02,24,15,13,6.30
2010,02,24,15,14,6.30
2010,02,24,15,15,6.40
2010,02,24,15,16,6.30
2010,02,24,15,17,6.30
2010,02,24,15,18,6.30
2010,02,24,15,19,6.30
2010,02,24,15,20,6.30
2010,02,24,15,21,6.40
2010,02,24,15,22,6.40
2010,02,24,15,23,6.40
2010,02,24,15,24,6.40
2010,02,24,15,25,6.50
2010,02,24,15,26,6.50
2010,02,24,15,27,6.50
2010,02,24,15,28,6.50
2010,02,24,15,29,6.50
2010,02,24,15,30,6.50
2010,02,24,15,31,6.50
2010,02,24,15,32,6.50
2010,02,24,15,33,6.50
2010,02,24,15,34,6.60
2010,02,24,15,35,6.50
2010,02,24,15,36,6.60
2010,02,24,15,37,6.60
2010,02,24,15,38,6.60
2010,02,24,15,39,6.60
2010,02,24,15,40,6.60
2010,02,24,15,41,6.60
2010,02,24,15,42,6.60
2010,02,24,15,43,6.60
2010,02,24,15,44,6.60
2010,02,24,15,45,6.70
2010,02,24,15,46,6.70
2010,02,24,15,47,6.70
2010,02,24,15,48,6.70
2010,02,24,15,49,6.70
2010,02,24,15,50,6.80
2010,02,24,15,51,6.80
2010,02,24,15,52,6.80
2010,02,24,15,53,6.80
2010,02,24,15,54,6.80
2010,02,24,15,55,6.80
2010,02,24,15,56,6.80
2010,02,24,15,57,6.80
2010,02,24,15,58,6.80
2010,02,24,15,59,6.80
2010,02,24,16,00,6.90
2010,02,24,16,01,6.90
2010,02,24,16,02,6.90
2010,02,24,16,03,6.90
2010,02,24,16,04,6.90
2010,02,24,16,05,6.90
2010,02,24,16,06,6.90
2010,02,24,16,07,7.00
2010,02,24,16,08,7.10
2010,02,24,16,09,7.10
2010,02,24,16,10,7.20
2010,02,24,16,11,7.20
2010,02,24,16,12,7.20
2010,02,24,16,13,7.20
2010,02,24,16,14,7.20
2010,02,24,16,15,7.30
2010,02,24,16,16,7.30
2010,02,24,16,17,7.30
2010,02,24,16,18,7.40
2010,02,24,16,19,7.40
2010,02,24,16,20,7.50
2010,02,24,16,21,7.50
2010,02,24,16,22,7.50
2010,02,24,16,23,7.40
2010,02,24,16,24,7.40
2010,02,24,16,25,7.40
2010,02,24,16,26,7.40
2010,02,24,16,27,7.40
2010,02,24,16,28,7.40
2010,02,24,16,29,7.40
2010,02,24,16,30,7.40
2010,02,24,16,31,7.40
2010,02,24,16,32,7.40
2010,02,24,16,33,7.40
2010,02,24,16,34,7.40
2010,02,24,16,35,7.50
2010,02,24,16,36,7.50
2010,02,24,16,37,7.50
2010,02,24,16,38,7.40
2010,02,24,16,39,7.40
2010,02,24,16,40,7.50
2010,02,24,16,41,7.50
2010,02,24,16,42,7.50
2010,02,24,16,43,7.50
2010,02,24,16,44,7.50
2010,02,24,16,45,7.50
2010,02,24,16,46,7.50
2010,02,24,16,47,7.50
2010,02,24,16,48,7.40
2010,02,24,16,49,7.50
2010,02,24,16,50,7.50
2010,02,24,16,51,7.50
2010,02,24,16,52,7.50
2010,02,24,16,53,7.50
2010,02,24,16,54,7.40
2010,02,24,16,55,7.40
2010,02,24,16,56,7.40
2010,02,24,16,57,7.40
2010,02,24,16,58,7.40
2010,02,24,16,59,7.40
2010,02,24,17,00,7.40
2010,02,24,17,01,7.40
2010,02,24,17,02,7.40
2010,02,24,17,03,7.40
2010,02,24,17,04,7.40
2010,02,24,17,05,7.40
2010,02,24,17,06,7.40
2010,02,24,17,07,7.40
2010,02,24,17,08,7.40
2010,02,24,17,09,7.50
2010,02,24,17,10,7.50
2010,02,24,17,11,7.50
2010,02,24,17,12,7.50
2010,02,24,17,13,7.60
2010,02,24,17,14,7.60
2010,02,24,17,15,7.60
2010,02,24,17,16,7.60
2010,02,24,17,17,7.60
2010,02,24,17,18,7.60
2010,02,24,17,19,7.60
2010,02,24,17,20,7.60
2010,02,24,17,21,7.60
2010,02,24,17,22,7.60
2010,02,24,17,23,7.60
2010,02,24,17,24,7.60
2010,02,24,17,25,7.60
2010,02,24,17,26,7.60
2010,02,24,17,27,7.60
2010,02,24,17,28,7.50
2010,02,24,17,29,7.50
2010,02,24,17,30,7.50
2010,02,24,17,31,7.50
2010,02,24,17,32,7.50
2010,02,24,17,33,7.50
2010,02,24,17,34,7.50
2010,02,24,17,35,7.40
2010,02,24,17,36,7.40
2010,02,24,17,37,7.40
2010,02,24,17,38,7.40
2010,02,24,17,39,7.40
2010,02,24,17,40,7.40
2010,02,24,17,41,7.40
2010,02,24,17,42,7.40
2010,02,24,17,43,7.40
2010,02,24,17,44,7.40
2010,02,24,17,45,7.30
2010,02,24,17,46,7.30
2010,02,24,17,47,7.30
2010,02,24,17,48,7.30
2010,02,24,17,49,7.30
2010,02,24,17,50,7.40
2010,02,24,17,51,7.50
2010,02,24,17,52,7.50
2010,02,24,17,53,7.60
2010,02,24,17,54,7.60
2010,02,24,17,55,7.60
2010,02,24,17,56,7.70
2010,02,24,17,57,7.60
2010,02,24,17,58,7.60
2010,02,24,17,59,7.60
2010,02,24,18,00,7.60
2010,02,24,18,01,7.50
2010,02,24,18,02,7.50
2010,02,24,18,03,7.40
2010,02,24,18,04,7.40
2010,02,24,18,05,7.30
2010,02,24,18,06,7.30